Home > Weather > Bielefeld > Past weeks

Flag for Germany Past Weather in Bielefeld, North Rhine-Westphalia, Germany — Yesterday and Last 2 Weeks

Now
81 °F

Sunny.


Feels Like: 80 °F
Forecast: 64 / 77 °F
Wind: 1 mph from North

Location: Paderborn / Lippstadt

Current Time: Jul 24, 2016 at 6:40:27 PM

Latest Report: Jul 24, 2016 at 5:50 PM


Visibility: 10 mi

Pressure: 30.07 "Hg

Humidity: 32%

Dew Point: 48 °F

Location of BielefeldLocation

Past Weather in Bielefeld — Graph

°F

Bielefeld Temperature Yesterday

Maximum temperature yesterday: 70 °F (at 4:20 PM)
Minimum temperature yesterday: 61 °F (at 12:50 AM)
Average temperature yesterday: 66 °F

High & Low Weather Summary for the Past Weeks

 TemperatureHumidityPressure
High91 °F (Jul 20, 5:20 PM)100% (Jul 14, 5:20 AM)30.27 "Hg (Jul 14, 5:20 AM)
Low50 °F (Jul 14, 6:50 AM)23% (Jul 20, 5:20 PM)29.77 "Hg (Jul 10, 9:50 PM)
Average67 °F68%30.05 "Hg
* Reported Jul 9 5:20 PM — Jul 24 5:20 PM, Bielefeld, Weather by CustomWeather, © 2016

Note: Actual official high and low records may vary slightly from our data, if they occured in-between our weather recording intervals... More about our weather records

Advertising

Bielefeld Weather History for the Previous 24 Hours

Scroll right to see more
 ConditionsComfort  
Time TempWeatherWind HumidityBarometerVisibility
5:20 PM
Sun, Jul 24
81 °FSunny.2 mph34%30.07 "Hg10 mi
4:50 PM81 °FSunny.3 mph32%30.09 "Hg10 mi
4:20 PM81 °FPassing clouds.5 mph30%30.09 "HgN/A
3:50 PM81 °FPassing clouds.5 mph32%30.09 "HgN/A
3:20 PM79 °FPassing clouds.5 mph37%30.09 "HgN/A
2:50 PM79 °FPassing clouds.7 mph39%30.09 "HgN/A
2:20 PM79 °FPassing clouds.6 mph45%30.09 "HgN/A
1:50 PM79 °FSunny.7 mph48%30.09 "Hg10 mi
1:20 PM79 °FSunny.3 mph45%30.09 "Hg10 mi
12:50 PM77 °FSunny.2 mph44%30.09 "Hg10 mi
12:20 PM79 °FSunny.5 mph39%30.09 "Hg10 mi
11:50 AM75 °FSunny.3 mph44%30.09 "Hg10 mi
11:20 AM75 °FSunny.2 mph44%30.09 "Hg10 mi
10:50 AM73 °FSunny.2 mph41%30.12 "Hg10 mi
10:20 AM72 °FSunny.1 mph50%30.12 "Hg10 mi
9:50 AM70 °FSunny.2 mph69%30.12 "Hg10 mi
9:20 AM68 °FSunny.2 mph73%30.12 "Hg10 mi
8:50 AM66 °FSunny.2 mph78%30.12 "Hg10 mi
8:20 AM66 °FSunny.2 mph83%30.09 "Hg10 mi
7:50 AM64 °FSunny.2 mph88%30.09 "Hg10 mi
7:20 AM64 °FSunny.2 mph88%30.09 "Hg10 mi
6:50 AM64 °FSunny.2 mph88%30.09 "Hg10 mi
6:20 AM63 °FClear.2 mph94%30.12 "Hg10 mi
5:50 AM63 °FClear.2 mph94%30.09 "Hg10 mi
5:20 AM63 °FClear.3 mph94%30.09 "Hg10 mi
4:50 AM64 °FClear.1 mph88%30.09 "Hg10 mi
4:20 AM64 °FClear.2 mph83%30.09 "Hg10 mi
3:50 AM64 °FMild.2 mph88%30.09 "HgN/A
3:20 AM64 °FClear.2 mph83%30.09 "Hg10 mi
2:50 AM64 °FClear.5 mph88%30.12 "Hg10 mi
2:20 AM66 °FClear.5 mph78%30.09 "Hg10 mi
1:50 AM64 °FPassing clouds.3 mph88%30.12 "HgN/A
1:20 AM64 °FClear.2 mph83%30.12 "Hg10 mi
12:50 AM64 °FClear.2 mph88%30.12 "Hg10 mi
12:20 AM64 °FClear.2 mph88%30.12 "Hg10 mi
11:50 PM
Sat, Jul 23
64 °FPassing clouds.3 mph88%30.12 "HgN/A
11:20 PM66 °FClear.3 mph88%30.12 "Hg10 mi
10:50 PM66 °FClear.5 mph88%30.12 "Hg10 mi
10:20 PM64 °FSunny.2 mph94%30.09 "Hg10 mi
9:50 PM66 °FSunny.2 mph88%30.09 "Hg10 mi
9:20 PM66 °FSunny.1 mph88%30.09 "Hg10 mi
8:50 PM66 °FSunny.1 mph88%30.09 "Hg10 mi
8:20 PM66 °FSunny.1 mph88%30.09 "Hg10 mi
7:50 PM68 °FSunny.1 mph83%30.09 "Hg10 mi
7:20 PM68 °FSunny.2 mph78%30.09 "Hg10 mi
6:50 PM68 °FSunny.2 mph78%30.09 "Hg10 mi
6:20 PM68 °FSunny.3 mph78%30.09 "Hg10 mi
Weather by CustomWeather, © 2016

See weather overviewHow to use our weather pages